Date String (YYYY-MM-DD hh:mm:ss) UTC,Instrument flags,Ambient pressure (hPa),Sample flow (lpm),Bypass flow (lpm),Sample temperature (°C),Ambient temperature (°C),ASC tube jacket temperature (°C),LED temperature (°C),Box temperature (°C),Sample RH (%),Span deviation,Mass concentration (μg/m³),Mass concentration (μg/m³),Mass concentration (μg/m³)
DateTimeUTC,F1_M11,P_M11,Q1_M11,Q2_M11,T1_M11,T2_M11,T3_M11,T4_M11,T5_M11,U1_M11,ZSPAN_M11,X0_M11,X2_M11,X1_M11
2021-09-12 23:00:00,,0829.6,4.99,0.00,30.3,28.3,00.0,39.2,31.6,28.3,0002.4,0010.58,0005.43,0004.52
2021-09-12 23:01:00,,0829.6,5.00,0.00,30.3,28.5,00.0,39.2,31.7,27.3,0002.2,0010.57,0005.40,0004.53
2021-09-12 23:02:00,,0829.6,4.99,0.00,30.3,28.7,00.0,39.2,31.7,27.3,0001.5,0010.18,0005.41,0004.54
2021-09-12 23:03:00,,0829.6,5.00,0.00,30.3,27.6,00.0,39.2,31.4,27.2,0001.4,0009.86,0005.43,0004.54
2021-09-12 23:04:00,,0829.6,5.00,0.00,30.2,26.1,00.0,39.1,31.1,27.8,0001.3,0009.93,0005.43,0004.53
2021-09-12 23:05:00,,0829.5,4.99,0.00,30.0,25.8,00.0,39.1,30.9,28.4,0001.0,0010.01,0005.48,0004.53
2021-09-12 23:06:00,,0829.6,5.01,0.00,29.9,26.1,00.0,39.1,31.0,29.1,0000.9,0010.31,0005.51,0004.53
2021-09-12 23:07:00,,0829.6,5.00,0.00,29.9,26.6,00.0,39.0,31.1,29.1,0000.0,0010.68,0005.56,0004.54
2021-09-12 23:08:00,,0829.6,5.01,0.00,29.9,27.1,00.0,39.0,31.2,28.4,0000.0,0010.89,0005.61,0004.53
2021-09-12 23:09:00,,0829.6,5.00,0.00,29.9,27.5,00.0,38.9,31.3,28.3,0000.0,0011.33,0005.61,0004.53
2021-09-12 23:10:00,,0829.6,5.00,0.00,29.9,27.8,00.0,38.9,31.4,29.0,0000.0,0011.29,0005.59,0004.52
2021-09-12 23:11:00,,0829.6,5.00,0.00,29.9,28.1,00.0,38.9,31.4,28.3,0000.0,0011.10,0005.55,0004.50
2021-09-12 23:12:00,,0829.6,5.00,0.00,30.0,28.3,00.0,38.9,31.5,28.5,0000.0,0010.97,0005.52,0004.47
2021-09-12 23:13:00,,0829.6,5.00,0.00,30.0,28.5,00.0,38.9,31.6,28.7,0000.0,0010.90,0005.48,0004.44
2021-09-12 23:14:00,,0829.5,5.00,0.00,30.0,28.6,00.0,38.9,31.7,28.2,0000.0,0010.85,0005.46,0004.43
2021-09-12 23:15:00,,0829.8,5.00,0.00,30.1,28.6,00.0,39.0,31.7,28.4,0000.0,0010.80,0005.44,0004.42
2021-09-12 23:16:00,,0829.8,5.00,0.00,30.0,27.2,00.0,38.9,31.3,29.0,0000.0,0010.62,0005.40,0004.41
2021-09-12 23:17:00,,0829.6,5.00,0.00,29.8,25.9,00.0,38.9,30.9,29.3,0000.0,0010.26,0005.38,0004.41
2021-09-12 23:18:00,,0829.6,5.00,0.00,29.7,25.8,00.0,38.9,30.9,29.1,0000.0,0010.02,0005.36,0004.41
2021-09-12 23:19:00,,0829.6,5.01,0.00,29.7,26.2,00.0,38.8,31.0,29.5,0000.0,0009.65,0005.30,0004.41
2021-09-12 23:20:00,,0829.6,4.99,0.00,29.6,26.7,00.0,38.8,31.0,29.2,0000.0,0009.23,0005.30,0004.41
2021-09-12 23:21:00,,0829.7,4.99,0.00,29.6,27.2,00.0,38.8,31.2,29.4,0000.0,0009.46,0005.34,0004.43
2021-09-12 23:22:00,,0829.6,5.00,0.00,29.6,27.5,00.0,38.7,31.2,30.0,0000.0,0010.00,0005.39,0004.44
2021-09-12 23:23:00,,0829.7,5.01,0.00,29.7,27.8,00.0,38.7,31.3,30.5,0000.0,0010.38,0005.48,0004.47
2021-09-12 23:24:00,,0829.8,4.99,0.00,29.7,28.1,00.0,38.7,31.4,30.5,0000.0,0010.56,0005.54,0004.50
2021-09-12 23:25:00,,0829.8,5.01,0.00,29.8,28.3,00.0,38.7,31.5,30.7,0000.1,0010.61,0005.56,0004.51
2021-09-12 23:26:00,,0829.8,5.00,0.00,29.8,28.5,00.0,38.7,31.5,30.5,0001.5,0010.56,0005.57,0004.53
2021-09-12 23:27:00,,0830.2,4.99,0.00,29.8,28.6,00.0,38.8,31.6,30.7,0001.1,0010.51,0005.59,0004.53
2021-09-12 23:28:00,,0829.6,5.01,0.00,29.9,28.7,00.0,38.8,31.6,30.9,0001.1,0010.64,0005.58,0004.55
2021-09-12 23:29:00,,0829.9,5.00,0.00,29.9,27.8,00.0,38.8,31.4,31.4,0000.1,0010.72,0005.54,0004.56
2021-09-12 23:30:00,,0829.9,5.00,0.00,29.7,26.1,00.0,38.7,30.9,31.3,-000.1,0010.85,0005.59,0004.57
2021-09-12 23:31:00,,0829.7,5.00,0.00,29.6,25.7,00.0,38.7,30.8,30.7,-000.7,0010.91,0005.60,0004.58
2021-09-12 23:32:00,,0829.6,5.00,0.00,29.5,26.0,00.0,38.7,30.8,30.9,-000.3,0010.93,0005.63,0004.59
2021-09-12 23:33:00,,0829.6,5.01,0.00,29.4,26.5,00.0,38.6,30.9,30.9,-000.4,0010.62,0005.68,0004.61
2021-09-12 23:34:00,,0829.5,5.00,0.00,29.4,26.9,00.0,38.6,31.0,31.3,-000.7,0010.37,0005.67,0004.62
2021-09-12 23:35:00,,0829.6,4.99,0.00,29.5,27.3,00.0,38.6,31.1,30.8,-000.4,0010.23,0005.64,0004.62
2021-09-12 23:36:00,,0829.6,5.01,0.00,29.5,27.6,00.0,38.6,31.2,30.5,-000.5,0010.20,0005.64,0004.63
2021-09-12 23:37:00,,0829.6,4.98,0.00,29.5,27.9,00.0,38.6,31.3,30.2,-000.4,0010.41,0005.67,0004.63
2021-09-12 23:38:00,,0829.6,5.02,0.00,29.6,28.1,00.0,38.6,31.3,29.9,-000.5,0010.44,0005.67,0004.64
2021-09-12 23:39:00,,0829.6,5.00,0.00,29.6,28.3,00.0,38.6,31.4,30.0,-000.2,0010.25,0005.67,0004.65
2021-09-12 23:40:00,,0829.7,4.99,0.00,29.6,28.5,00.0,38.6,31.4,29.6,0000.0,0010.08,0005.68,0004.65
2021-09-12 23:41:00,,0829.8,5.00,0.00,29.7,28.7,00.0,38.6,31.5,29.4,0000.3,0010.11,0005.67,0004.66
2021-09-12 23:42:00,,0829.6,5.00,0.00,29.7,28.8,00.0,38.6,31.6,29.4,0001.1,0010.29,0005.70,0004.65
2021-09-12 23:43:00,,0829.8,5.01,0.00,29.7,27.6,00.0,38.6,31.3,29.2,0001.7,0010.68,0005.68,0004.65
2021-09-12 23:44:00,,0829.6,5.00,0.00,29.6,26.0,00.0,38.6,30.8,29.6,0001.9,0010.64,0005.61,0004.64
2021-09-12 23:45:00,,0829.6,5.00,0.00,29.4,25.6,00.0,38.6,30.7,29.9,0002.1,0011.29,0005.62,0004.65
2021-09-12 23:46:00,,0829.6,5.01,0.00,29.3,26.0,00.0,38.6,30.7,30.2,0001.9,0011.96,0005.62,0004.65
2021-09-12 23:47:00,,0829.6,4.99,0.00,29.3,26.5,00.0,38.5,30.8,30.2,0001.9,0012.24,0005.63,0004.66
2021-09-12 23:48:00,,0829.6,5.02,0.00,29.3,26.9,00.0,38.5,30.9,30.3,0001.6,0012.75,0005.67,0004.67
2021-09-12 23:49:00,,0829.9,4.99,0.00,29.3,27.4,00.0,38.4,31.0,30.3,0001.5,0012.70,0005.67,0004.67
2021-09-12 23:50:00,,0829.6,4.99,0.00,29.4,27.7,00.0,38.4,31.1,30.2,0001.8,0012.72,0005.68,0004.67
2021-09-12 23:51:00,,0829.7,5.01,0.00,29.4,28.0,00.0,38.4,31.2,30.0,0001.0,0012.72,0005.68,0004.67
2021-09-12 23:52:00,,0829.6,5.00,0.00,29.5,28.2,00.0,38.4,31.3,30.0,0001.8,0012.77,0005.72,0004.67
2021-09-12 23:53:00,,0829.6,4.99,0.00,29.5,28.4,00.0,38.5,31.3,29.8,0001.5,0012.64,0005.71,0004.68
2021-09-12 23:54:00,,0829.6,5.01,0.00,29.5,28.6,00.0,38.5,31.4,29.7,0001.0,0012.33,0005.69,0004.67
2021-09-12 23:55:00,,0829.6,4.98,0.00,29.6,28.7,00.0,38.5,31.4,29.6,0001.3,0012.02,0005.68,0004.67
2021-09-12 23:56:00,,0829.6,5.00,0.00,29.6,28.8,00.0,38.5,31.5,29.5,0001.7,0011.78,0005.69,0004.67
2021-09-12 23:57:00,,0829.7,5.01,0.00,29.7,28.3,00.0,38.6,31.4,29.4,0001.6,0011.39,0005.68,0004.66
2021-09-12 23:58:00,,0829.7,4.99,0.00,29.6,26.4,00.0,38.5,30.9,29.4,0001.4,0011.14,0005.66,0004.66
2021-09-12 23:59:00,,0829.6,5.00,0.00,29.4,25.5,00.0,38.5,30.7,29.7,0001.4,0010.44,0005.60,0004.65
